Regional Weather Roundup
Issued by NWS

Home | Current Version | Previous Version | Text Only | Print | Product List | Glossary On
Versions: 1 2 3 4 5 6 7 8 9 10 11 12 13 14 15 16 17 18 19 20 21 22 23 24 25 26 27 28 29 30 31 32 33 34 35 36 37 38 39 40 41 42 43 44 45 46 47 48 49 50
000
ASUS43 KOAX 312310
RWRNE

WEATHER ROUNDUP FOR NEBRASKA
NATIONAL WEATHER SERVICE OMAHA NE
600 PM CDT WED AUG 31 2016

NOTES: SATELLITE DATA IS BEING USED TO AUGMENT CLOUD COVER ABOVE
       12000 FEET.
       "FAIR" INDICATES FEW OR NO CLOUDS BELOW 12,000 FEET WITH NO
       SIGNIFICANT WEATHER AND/OR OBSTRUCTIONS TO VISIBILITY.

  * THESE STATIONS DO NOT REPORT WEATHER SUCH AS RAIN...SNOW OR FOG.

NEZ001>004-019>022-054>056-010000-
NEBRASKA PANHANDLE

CITY           SKY/WX    TMP DP  RH WIND       PRES   REMARKS
SCOTTSBLUFF    MOSUNNY   81  57  43 E15       30.18F
ALLIANCE       MOSUNNY   80  56  43 SE16G23   30.20S
CHADRON        MOSUNNY   83  52  34 SE16      30.14F
KIMBALL        CLOUDY    77  57  48 SE13G18   30.23S
SIDNEY         MOSUNNY   77  58  51 SE13      30.22F
$$

NEZ057>060-069>072-079>082-010000-
SOUTHWEST NEBRASKA

CITY           SKY/WX    TMP DP  RH WIND       PRES   REMARKS
NORTH PLATTE   SUNNY     81  59  47 SE15      30.19S
IMPERIAL       MOSUNNY   75  64  68 SE12      30.20F
LEXINGTON      MOSUNNY   80  62  54 SE7       30.18S
MCCOOK         MOSUNNY   75  64  68 SE10      30.17F
OGALLALA       PTSUNNY   73  65  74 E10       30.20S
$$

NEZ005>010-023>029-035>040-094-010000-
NORTH CENTRAL NEBRASKA

CITY           SKY/WX    TMP DP  RH WIND       PRES   REMARKS
VALENTINE      MOSUNNY   83  55  38 SE12      30.18F
AINSWORTH      SUNNY     81  60  48 E10       30.19F
BROKEN BOW     MOSUNNY   80  60  50 E10       30.19S
O`NEILL        PTSUNNY   82  52  35 SE8       30.19S
ORD            SUNNY     81  53  37 E8        30.17S
THEDFORD       MOSUNNY   83  57  40 SE14      30.20F
$$

NEZ041-046>049-061>064-073>077-083>087-010000-
SOUTH CENTRAL NEBRASKA

CITY           SKY/WX    TMP DP  RH WIND       PRES   REMARKS
GRAND ISLAND   SUNNY     81  53  37 E9        30.18S
AURORA         SUNNY     78  58  50 NE8       30.17F
HASTINGS       SUNNY     79  55  43 E10       30.17F
HEBRON         SUNNY     78  59  51 E8        30.14F
HOLDREGE       SUNNY     78  61  55 E8        30.17S
KEARNEY *      SUNNY     81  63  54 E9        30.16S
YORK           SUNNY     77  59  53 NE10      30.17S
$$

NEZ011>018-030>034-042>045-010000-
NORTHEAST NEBRASKA

CITY           SKY/WX    TMP DP  RH WIND       PRES   REMARKS
NORFOLK        SUNNY     79  58  48 E9        30.17S
ALBION         SUNNY     78  56  46 E9        30.18S
BLAIR          SUNNY     78  59  52 NE8       30.16S
FREMONT        SUNNY     78  59  51 NE6       30.16S
TEKAMAH        SUNNY     79  60  52 NE7       30.15S
WAYNE          SUNNY     77  64  63 NE5       30.18F
$$

NEZ050>053-065>068-078-088>093-010000-
SOUTHEAST NEBRASKA

CITY           SKY/WX    TMP DP  RH WIND       PRES   REMARKS
LINCOLN        SUNNY     80  59  48 NE10      30.15S
OMAHA EPPLEY   MOSUNNY   80  59  48 N10       30.14S
BEATRICE       CLOUDY    78  60  54 NE9       30.13F
FALLS CITY     PTSUNNY   78  61  55 NE5       30.10F
NEBRASKA CITY  MOSUNNY   76  58  52 NE8       30.13F
PLATTSMOUTH    CLOUDY    78  61  55 NE6       30.14S
$$

NEZ044-045-051>053-067-010000-
OMAHA AREA

CITY           SKY/WX    TMP DP  RH WIND       PRES   REMARKS
OMAHA EPPLEY   MOSUNNY   80  59  48 N10       30.14S
BLAIR          SUNNY     78  59  52 NE8       30.16S
FREMONT        SUNNY     78  59  51 NE6       30.16S
MILLARD        SUNNY    N/A N/A N/A NE5       30.14F
OFFUTT AFB     SUNNY     80  62  54 N8        30.13S
PLATTSMOUTH    CLOUDY    78  61  55 NE6       30.14S
WAHOO          FAIR      78  60  54 NE6       30.15S
$$



USA.gov is the U.S. government's official web portal to all federal, state and local government web resources and services.